Simultaneous Nadir Overpasses (SNOs) Predictions

Prediction of SNOs between GOES-16 and TERRA Satellite Orbit:

Table of predicted SNOs for the next 14.0 days since TLE Epoch: 9/26/2020
Index Date Time (GOES-16) GOES-16 Lat,Lon TERRA Lat,Lon Distance(km) Time Diff (sec)
1 09/27/2020 03:27:02 0.01, -75.18 0.17, -74.53 74.88 80
2 09/29/2020 03:14:50 0.02, -75.19 0.76, -71.56 411.56 80
3 09/29/2020 15:38:46 -0.01, -75.21 0.31, -76.73 172.61 80
4 10/01/2020 15:23:55 -0.02, -75.22 -0.34, -73.78 165.14 80
5 10/02/2020 03:47:59 0.01, -75.21 -0.78, -78.96 426.38 80
6 10/04/2020 03:35:48 0.02, -75.24 -0.13, -76.01 87.95 80
7 10/06/2020 03:20:56 0.02, -75.26 0.46, -73.05 250.90 80
8 10/06/2020 15:44:52 -0.01, -75.28 0.61, -78.21 332.97 80
9 10/08/2020 15:30:01 -0.01, -75.31 -0.05, -75.26 6.67 80
